User: anonymous   Login
Location: Caltech
(34.1382°N, 118.1253°W)
Time: 06:15:34
(UTC-07:00)
Language:

Iridium 95 - Orbit

View from above orbital plane
View from above orbital plane
View from above satellite
View from above satellite

Ground track
Ground track

The orbit data is extracted from the following two-line orbital elements,

1 27375U 02005D   17086.91473281 +.00000144 +00000-0 +44499-4 0  9991
2 27375 086.3731 321.3389 0002036 083.0436 277.0991 14.34221559799239
Epoch (UTC): 27 March 2017 21:57:12
Eccentricity: 0.0002036
inclination: 86.3731°
perigee height: 776 km
apogee height: 779 km
right ascension of ascending node: 321.3389°
argument of perigee: 83.0436°
revolutions per day: 14.34221559
mean anomaly at epoch: 277.0991°
orbit number at epoch: 79923

The dashed part of the orbit path shows where the satellite is in the earth's shadow,  

DLR